Location: Lugrin
(46.4033°N, 6.6674°E)
Time: 14:35:47
(UTC+00:00)

MOS 1 Rocket - Pass Details

Date: 18 September 2020
Orbit: 614 x 831 km, 97.4° (Epoch: 23 October)

Event Time Altitude Azimuth Distance (km) Brightness Sun altitude
Rises 18:57:24 0° 11° (N) 3,031 6.7 -14.2°
Reaches altitude 10° 18:59:42 10° 9° (N) 2,083 5.9 -14.6°
Maximum altitude 19:04:12 75° 286° (WNW) 663 3.3 -15.3°
Drops below altitude 10° 19:08:30 10° 200° (SSW) 1,985 5.7 -16.0°
Sets 19:10:38 0° 199° (SSW) 2,876 6.5 -16.4°
